Wind_Speed
12 10 10 11 15 15 17 12 4 11 12 12 13 13 12 10 8 6 5 6 7 6 15 26 29 36 44 44 49 46 49 49 47 47 62 50 54 41 50 56 53 47 54 51
13 8 17 12 14 13 16 11 8 12 14 10 17 15 13 12 10 9 8 5 6 5 5 12 17 25 31 38 46 52 40 50 47 50 44 51 50 52 52 61 44 52 53 51
8 18 17 2 7 8 11 11 11 10 11 12 12 12 13 12 11 11 9 9 7 6 6 8 14 17 23 31 34 36 53 51 49 42 53 34 50 56 51 43 46 47 47 50
11 16 4 4 11 10 11 12 12 11 11 13 15 15 11 11 10 10 11 11 10 9 9 8 9 14 19 24 26 30 41 46 41 45 49 50 50 54 57 51 50 48 55 50
6 11 18 17 8 8 14 21 13 5 9 14 15 16 15 13 12 13 10 9 11 11 11 11 11 9 13 18 22 26 28 34 45 46 50 51 52 47 47 48 47 60 54 61
8 4 4 6 10 15 19 19 3 12 17 19 17 17 15 14 12 12 11 9 8 10 12 14 14 15 14 16 19 22 24 28 34 37 43 48 51 52 51 60 52 61 58 61
12 9 12 15 13 17 8 10 16 24 22 19 17 16 14 14 13 12 12 11 9 7 9 12 15 18 18 18 17 19 21 24 27 29 35 40 42 40 45 46 53 62 56 59
5 6 9 12 18 17 22 24 26 23 20 18 17 16 15 13 13 11 11 10 9 8 8 9 10 15 18 21 21 21 21 21 24 28 30 33 37 41 41 40 41 47 48 50
11 21 21 23 22 23 23 25 21 20 18 17 16 16 15 15 14 13 11 10 9 8 8 8 7 9 13 18 21 23 24 24 23 24 25 26 30 33 34 38 39 37 38 45
27 26 25 22 24 23 22 22 19 18 18 16 14 14 14 15 15 14 12 11 10 10 9 8 8 8 9 11 15 19 23 26 28 27 27 26 27 28 30 32 35 37 38 38
31 24 26 25 20 18 20 20 21 18 18 17 15 14 13 13 14 14 13 12 12 11 11 11 9 8 9 9 11 13 17 20 24 29 31 30 30 30 29 29 30 32 35 38
28 23 25 26 22 20 21 22 22 21 17 18 17 15 13 13 14 14 13 12 12 12 12 13 13 12 10 11 11 12 13 16 19 22 26 31 33 33 33 33 33 32 31 33
26 24 25 25 25 23 23 25 25 22 17 18 19 17 14 13 14 14 14 14 12 13 14 15 14 15 15 13 14 13 14 15 15 18 20 24 27 29 33 36 38 38 38 38
25 26 24 23 23 23 26 26 25 23 19 19 20 19 17 14 13 11 14 15 13 13 14 14 16 17 17 16 16 17 17 17 17 17 18 20 22 24 27 30 32 34 37 40
22 23 22 22 20 21 23 24 25 24 20 19 21 20 20 16 15 14 13 14 14 15 16 15 15 17 17 17 18 19 19 20 19 19 20 20 22 23 24 26 28 30 32 33
20 21 22 21 20 20 22 25 27 23 20 18 21 22 20 21 20 18 17 18 17 18 19 19 20 20 20 20 19 20 21 21 22 22 21 21 23 24 25 26 27 28 28 29
21 22 23 22 22 21 24 26 25 21 17 16 17 22 23 22 23 22 20 22 21 20 22 23 24 24 23 22 22 23 23 23 24 23 24 24 24 25 26 27 27 28 29 30
24 24 24 23 23 23 23 24 22 19 15 14 15 18 21 23 22 22 24 26 25 23 24 27 28 28 28 26 26 25 25 25 25 24 25 26 26 26 27 26 27 28 29 30
24 25 25 24 24 24 23 20 19 16 15 12 12 14 17 20 22 24 26 27 27 27 26 29 29 29 28 28 27 27 27 26 26 26 26 27 27 28 28 28 29 29 29 30
25 24 25 24 25 25 22 19 18 14 13 12 11 11 12 15 18 20 23 24 24 25 25 25 26 25 25 24 26 27 27 27 27 27 28 28 28 28 29 29 30 30 31 31
27 26 26 25 26 25 21 18 17 14 13 12 11 11 11 12 13 15 16 17 18 21 21 22 22 21 22 23 24 24 25 26 27 28 29 29 29 30 30 29 30 30 32 32
29 27 27 25 26 25 21 17 16 14 13 12 12 12 12 13 15 16 17 18 19 21 21 21 21 21 21 21 22 23 25 26 26 26 27 27 28 29 30 30 31 32 32 33
29 28 27 26 26 24 20 17 15 14 13 13 13 13 14 16 17 19 19 22 22 22 23 22 21 21 22 24 24 24 25 25 25 26 27 27 28 28 29 29 30 31 31 31
28 28 27 26 26 23 18 16 14 13 13 14 14 16 17 18 19 21 21 21 22 23 24 23 22 23 23 24 23 23 23 24 25 26 27 28 29 29 31 31 32 32 33 34
27 27 26 26 24 20 16 15 13 13 13 13 15 17 18 19 19 20 22 23 23 22 22 23 24 24 25 24 24 24 24 24 25 26 27 29 30 31 32 32 32 32 33 34
27 26 25 24 22 18 16 13 12 13 13 14 15 17 18 19 19 20 20 21 20 21 21 22 23 25 25 26 26 27 27 27 28 28 29 29 30 30 31 32 33 34 34 35
27 26 24 21 18 16 14 12 11 12 13 14 15 17 17 17 18 19 19 19 19 20 21 22 23 25 26 27 28 29 30 30 31 31 32 32 32 32 32 33 34 34 35 35
Wind_Direction
349 2 336 312 301 319 338 344 321 313 309 313 328 330 331 328 316 313 314 320 307 255 207 218 220 216 222 222 223 229 225 228 235 227 224 236 231 231 235 226 210 237 216 219
351 327 329 297 284 306 325 323 336 331 331 324 319 321 325 316 303 296 291 292 297 293 250 219 217 219 219 225 230 229 221 228 236 236 236 240 238 239 238 229 235 214 212 218
312 332 325 261 271 306 329 334 310 328 345 334 329 325 312 308 310 298 288 275 264 264 265 235 224 227 219 219 217 216 220 232 227 220 230 224 224 225 220 224 215 213 219 217
307 341 5 288 308 302 320 333 318 301 328 339 335 334 336 319 313 314 293 279 267 254 252 257 236 226 223 227 225 221 221 222 220 227 233 235 234 228 234 222 220 219 214 219
297 307 290 288 278 302 319 324 316 294 329 335 329 326 333 327 322 313 307 289 273 259 241 241 253 241 231 222 227 226 221 221 222 221 223 221 223 228 240 219 223 209 218 205
299 290 267 282 294 302 314 310 354 329 317 316 315 315 321 323 321 317 311 308 284 264 254 244 236 245 241 230 225 226 228 222 224 222 222 225 227 224 233 223 232 230 209 215
278 258 264 274 303 312 297 296 291 309 309 307 300 295 302 307 310 314 315 312 307 292 266 254 244 237 240 240 228 227 224 226 224 223 222 223 227 224 217 218 218 220 222 219
278 258 281 291 299 292 311 299 290 293 295 300 296 290 285 290 295 301 304 309 308 303 291 270 252 246 239 237 236 232 230 224 225 226 223 221 224 228 228 225 223 221 220 218
279 293 306 304 292 295 305 322 296 288 287 294 295 288 283 278 282 289 295 301 303 297 292 290 278 256 249 243 239 235 234 231 228 226 227 226 221 223 227 227 228 232 230 224
308 332 322 302 295 287 298 319 313 287 283 286 289 290 284 281 278 279 284 285 287 288 285 279 276 274 263 250 248 245 238 234 235 232 228 228 227 223 225 227 226 228 234 239
314 328 313 316 307 283 295 310 322 300 279 278 280 281 282 279 274 273 272 270 272 273 276 276 270 265 264 260 253 247 248 245 242 238 238 232 230 228 226 226 226 226 225 229
315 315 315 316 310 300 298 304 314 315 286 272 271 273 276 271 271 268 267 263 263 265 267 268 268 267 261 260 258 256 247 244 247 245 243 242 240 238 233 230 227 230 234 230
317 317 321 317 306 298 296 302 311 312 288 268 265 264 268 270 267 262 265 266 263 262 263 265 267 269 265 263 259 255 256 252 243 243 245 244 243 247 247 241 237 233 233 235
313 312 323 315 304 294 293 302 308 309 293 267 259 257 258 261 265 262 258 262 267 266 267 268 268 268 268 265 262 259 256 253 252 247 242 244 245 245 247 247 248 249 246 241
311 311 319 319 309 297 296 301 306 307 292 270 252 251 249 250 254 255 259 265 269 273 273 272 269 270 269 267 263 261 257 255 251 250 249 246 245 243 244 246 248 249 248 247
318 316 322 324 318 306 300 302 307 306 294 274 257 249 247 244 248 254 259 266 271 275 278 277 275 270 269 268 266 264 261 258 256 253 251 249 248 248 245 242 244 247 248 249
325 322 325 327 323 312 303 304 308 307 295 281 261 247 245 245 246 252 260 266 269 272 276 278 278 277 277 272 267 264 261 260 259 257 255 253 251 250 249 249 247 245 246 247
330 325 327 327 326 317 308 307 307 304 296 282 269 256 249 250 253 252 254 260 266 269 272 274 275 276 275 273 270 265 261 258 258 257 256 254 253 251 252 250 250 249 249 248
337 331 328 326 328 322 314 309 306 302 296 290 275 265 258 254 253 254 256 261 266 268 268 269 271 272 271 270 267 265 263 260 256 255 254 253 252 252 252 252 251 251 252 251
332 331 328 325 326 325 318 309 305 300 293 289 283 273 264 258 258 259 261 264 265 266 266 267 269 271 273 270 267 265 261 259 259 257 255 253 252 252 252 252 253 253 251 251
325 327 327 323 324 323 317 307 302 296 289 286 282 278 275 273 270 269 270 271 271 270 272 274 274 273 270 268 267 266 264 261 258 256 256 255 253 252 251 252 252 252 254 254
319 323 324 321 321 321 315 306 300 290 283 279 277 278 278 278 278 278 277 275 271 273 275 273 273 274 273 269 267 266 266 264 262 260 257 254 253 253 252 251 251 252 252 252
314 318 320 318 318 318 312 305 297 286 280 277 277 279 282 283 284 283 280 280 279 276 274 274 274 272 271 270 270 267 264 264 264 264 263 261 258 255 253 252 251 250 251 252
312 316 317 315 316 315 308 302 294 283 276 276 280 283 286 287 288 286 285 282 279 276 275 274 272 268 268 270 273 273 272 268 263 260 258 257 258 257 257 256 254 253 251 251
313 315 315 314 313 311 306 301 293 282 278 280 284 288 292 293 292 289 290 289 285 280 275 272 271 269 270 273 272 272 271 270 268 265 263 262 261 261 260 260 259 257 255 254
315 316 315 314 311 308 307 302 291 283 283 287 290 294 296 296 297 296 293 290 286 281 279 275 272 271 272 272 272 272 271 270 269 268 267 265 263 262 262 261 261 260 259 256
317 317 315 312 309 307 304 298 289 288 293 297 299 299 300 302 302 301 299 297 293 289 285 281 278 276 274 273 273 273 273 272 272 270 268 267 267 265 263 261 261 261 260 260
Height
3014 3010 3008 3006 3004 3003 3001 3000 2998 2996 2993 2991 2987 2983 2979 2977 2979 2980 2980 2978 2978 2977 2977 2980 2983 2986 2993 2999 3005 3011 3015 3020 3025 3034 3038 3042 3048 3048 3057 3065 3071 3079 3086 3092
3011 3009 3007 3005 3002 3001 3000 2998 2996 2993 2990 2988 2985 2981 2980 2981 2981 2980 2979 2977 2977 2976 2976 2980 2981 2983 2987 2992 2998 3006 3008 3015 3020 3023 3029 3034 3039 3043 3050 3054 3058 3067 3078 3085
3011 3008 3003 3003 3001 3000 2998 2996 2994 2992 2991 2988 2987 2986 2984 2983 2981 2978 2976 2977 2976 2975 2975 2976 2977 2979 2981 2987 2992 2996 3001 3007 3014 3017 3025 3029 3030 3038 3046 3048 3055 3062 3066 3075
3013 3008 3008 3002 3000 2998 2996 2993 2991 2989 2988 2986 2984 2982 2981 2978 2976 2976 2976 2974 2972 2970 2970 2972 2975 2978 2980 2985 2988 2990 2994 3000 3006 3012 3020 3024 3028 3031 3039 3041 3050 3054 3060 3066
3016 3011 3004 2998 2998 2997 2993 2991 2987 2986 2985 2984 2982 2980 2977 2974 2972 2973 2973 2971 2969 2969 2968 2970 2974 2977 2978 2981 2984 2986 2988 2993 2998 3004 3009 3016 3022 3025 3027 3034 3040 3044 3051 3052
3015 3012 3006 2997 2996 2994 2991 2986 2985 2985 2984 2981 2978 2975 2974 2971 2972 2972 2971 2969 2968 2966 2966 2967 2970 2974 2976 2977 2977 2980 2984 2987 2992 2996 3002 3007 3012 3016 3021 3026 3028 3035 3038 3045
3012 3008 2999 2995 2994 2992 2991 2990 2983 2981 2980 2978 2976 2975 2973 2970 2968 2967 2965 2965 2963 2961 2962 2965 2966 2968 2970 2973 2975 2978 2980 2983 2987 2991 2993 2998 3003 3007 3011 3018 3019 3025 3028 3033
3008 3006 2997 2991 2989 2989 2986 2980 2977 2976 2975 2973 2972 2970 2970 2969 2969 2967 2966 2964 2961 2960 2961 2963 2964 2965 2966 2969 2971 2974 2976 2978 2982 2985 2987 2990 2995 3000 3004 3007 3010 3015 3020 3024
3006 2996 2992 2987 2983 2981 2978 2975 2971 2970 2969 2968 2967 2966 2965 2965 2964 2963 2961 2958 2958 2960 2961 2961 2961 2963 2962 2963 2965 2967 2971 2975 2978 2980 2983 2985 2988 2994 2997 3001 3005 3011 3015 3016
2996 2991 2987 2983 2978 2976 2973 2970 2967 2965 2964 2963 2963 2961 2960 2959 2958 2957 2956 2956 2956 2958 2959 2960 2960 2959 2959 2959 2960 2963 2965 2968 2971 2975 2977 2981 2983 2986 2990 2995 2998 3000 3006 3010
2987 2985 2979 2976 2971 2970 2968 2965 2963 2960 2958 2958 2958 2958 2957 2956 2955 2955 2954 2955 2956 2956 2957 2958 2958 2957 2957 2957 2958 2959 2959 2961 2963 2967 2970 2973 2977 2982 2985 2987 2990 2993 2997 3000
2983 2979 2975 2970 2966 2964 2963 2961 2958 2955 2953 2952 2953 2953 2953 2952 2952 2952 2952 2953 2954 2954 2954 2954 2956 2954 2953 2954 2955 2955 2956 2958 2959 2960 2961 2964 2968 2973 2976 2978 2980 2985 2991 2993
2980 2974 2969 2964 2961 2958 2957 2955 2952 2950 2947 2946 2946 2947 2947 2947 2947 2948 2948 2948 2949 2950 2950 2951 2947 2948 2950 2951 2951 2952 2953 2954 2955 2957 2958 2959 2961 2963 2965 2967 2971 2976 2980 2984
2974 2969 2965 2960 2955 2952 2950 2948 2946 2943 2941 2940 2940 2940 2941 2942 2942 2942 2943 2943 2943 2944 2944 2943 2944 2945 2946 2946 2946 2947 2949 2950 2951 2952 2954 2955 2956 2957 2957 2959 2963 2965 2968 2971
2968 2964 2960 2955 2950 2947 2945 2942 2939 2936 2933 2933 2933 2934 2935 2936 2937 2938 2938 2938 2939 2938 2938 2938 2938 2938 2940 2941 2942 2942 2943 2944 2945 2946 2947 2949 2950 2951 2952 2954 2955 2958 2961 2961
2963 2959 2955 2950 2944 2941 2938 2935 2932 2929 2925 2925 2925 2927 2929 2930 2931 2932 2933 2933 2933 2933 2932 2932 2932 2933 2934 2935 2935 2936 2937 2936 2937 2939 2940 2942 2943 2945 2947 2949 2951 2952 2952 2951
2957 2953 2948 2944 2939 2935 2932 2929 2925 2922 2920 2918 2918 2919 2921 2923 2924 2926 2927 2927 2927 2927 2926 2925 2925 2926 2927 2927 2928 2928 2930 2929 2929 2930 2931 2932 2934 2936 2938 2940 2941 2942 2944 2945
2951 2947 2943 2938 2933 2929 2925 2922 2919 2916 2914 2913 2912 2913 2914 2916 2918 2919 2920 2919 2920 2921 2920 2919 2918 2918 2918 2918 2919 2919 2919 2920 2920 2922 2923 2925 2926 2927 2929 2931 2931 2933 2935 2937
2945 2941 2937 2932 2928 2923 2919 2916 2913 2910 2909 2908 2907 2907 2908 2909 2910 2912 2912 2912 2913 2913 2913 2911 2910 2909 2909 2909 2909 2908 2909 2911 2912 2913 2915 2917 2918 2919 2919 2919 2921 2923 2926 2927
2939 2935 2931 2927 2922 2918 2913 2910 2907 2906 2904 2903 2903 2902 2902 2902 2903 2904 2904 2904 2904 2904 2903 2902 2901 2900 2900 2899 2898 2898 2900 2902 2903 2904 2905 2906 2907 2908 2909 2909 2911 2913 2916 2917
2933 2928 2924 2921 2916 2912 2908 2904 2902 2901 2900 2899 2898 2898 2898 2897 2897 2897 2897 2897 2897 2895 2894 2894 2893 2893 2892 2891 2891 2891 2891 2892 2893 2894 2895 2896 2897 2898 2900 2901 2902 2904 2906 2906
2926 2922 2918 2914 2910 2906 2902 2899 2897 2896 2895 2895 2894 2893 2893 2892 2892 2891 2890 2890 2889 2888 2887 2886 2886 2885 2884 2883 2883 2883 2882 2882 2883 2884 2885 2887 2888 2889 2890 2891 2893 2894 2895 2896
2920 2916 2911 2907 2903 2899 2896 2894 2892 2891 2890 2890 2889 2889 2888 2887 2886 2885 2884 2882 2881 2881 2879 2879 2878 2877 2876 2875 2875 2875 2875 2875 2875 2875 2875 2876 2876 2878 2879 2880 2882 2884 2885 2886
2913 2909 2905 2901 2897 2893 2890 2888 2886 2886 2885 2885 2884 2883 2882 2881 2879 2877 2876 2875 2873 2872 2871 2870 2870 2869 2868 2867 2867 2867 2866 2866 2866 2866 2866 2866 2866 2866 2868 2869 2871 2872 2874 2875
2906 2902 2898 2894 2890 2887 2885 2883 2881 2881 2880 2880 2879 2878 2876 2874 2873 2871 2868 2866 2865 2863 2863 2862 2861 2860 2859 2859 2858 2858 2857 2857 2856 2856 2856 2856 2856 2857 2858 2858 2859 2861 2862 2864
2899 2895 2891 2887 2884 2881 2879 2878 2877 2876 2875 2875 2874 2872 2870 2868 2866 2864 2861 2859 2857 2855 2854 2853 2852 2851 2851 2850 2849 2848 2848 2847 2846 2846 2845 2846 2846 2846 2847 2847 2848 2849 2850 2851
2891 2887 2883 2880 2878 2876 2874 2873 2872 2871 2870 2869 2868 2866 2864 2862 2859 2857 2854 2852 2850 2848 2847 2845 2844 2842 2841 2840 2839 2838 2837 2836 2835 2834 2834 2834 2834 2835 2835 2836 2836 2837 2837 2838